Location: Goworowo
(52.9007°N, 21.5544°E)
Time: 04:47:45
(UTC+02:00)

ISS - Visible Passes

Search period start: 26 September 2018 00:00
Search period end: 06 October 2018 00:00
Orbit: 403 x 408 km, 51.6° (Epoch: 26 September)

Date Brightness Start Highest point End Pass type
(mag) Time Alt. Az. Time Alt. Az. Time Alt. Az.
26 Sep -3.6 20:13:04 10° WSW 20:16:17 49° SSE 20:16:23 49° SSE visible
27 Sep -3.1 19:21:24 10° SW 19:24:28 37° SSE 19:26:35 17° E visible
27 Sep -2.1 20:57:28 10° W 20:59:16 29° WSW 20:59:16 29° WSW visible
28 Sep -3.8 20:05:36 10° WSW 20:08:53 65° S 20:09:23 54° ESE visible
28 Sep -0.5 21:42:00 10° W 21:42:03 10° W 21:42:03 10° W visible
29 Sep -3.5 19:13:45 10° WSW 19:17:00 54° SSE 19:19:26 16° E visible
29 Sep -2.3 20:50:05 10° W 20:52:07 34° W 20:52:07 34° W visible
30 Sep -3.9 19:58:09 10° W 20:01:28 72° S 20:02:08 51° ESE visible
30 Sep -0.5 21:34:37 10° W 21:34:48 11° W 21:34:48 11° W visible
01 Oct -3.7 19:06:15 10° WSW 19:09:32 68° S 19:12:07 15° E visible
01 Oct -2.4 20:42:40 10° W 20:44:47 35° WSW 20:44:47 35° WSW visible
02 Oct -3.8 19:50:42 10° W 19:54:00 68° S 19:54:46 47° ESE visible
02 Oct -0.5 21:27:16 10° W 21:27:26 11° W 21:27:26 11° W visible
03 Oct -3.7 18:58:44 10° W 19:02:02 72° S 19:04:44 14° E visible
03 Oct -2.3 20:35:13 10° W 20:37:24 32° WSW 20:37:24 32° WSW visible
04 Oct -3.4 19:43:12 10° W 19:46:27 53° SSW 19:47:23 38° SE visible
05 Oct -3.6 18:51:13 10° W 18:54:30 64° S 18:57:23 13° ESE visible
05 Oct -1.9 20:27:50 10° W 20:30:03 25° SW 20:30:03 25° SW visible
